UAL5744 KSFO-KPDX

Flight info

Callsign UAL5744
Flight time 1h 20m
Altitude 38000
Route TRUKN2 GRTFL MACHU TMBRS4
Aircraft A319/M-SDE3FGHIRWY/LB1

Departure

Time 2026-05-03 22:41
Airport San Francisco International Airport (KSFO)

Arrival

Time 2026-05-04 00:01
Airport Portland International Airport (KPDX)
Time Latitude Longitude Altitude Speed Heading
2026-05-03 22:12 37.61885 -122.38377 19 ft 0 kts 297°
2026-05-03 22:20 37.61885 -122.38376 19 ft 0 kts 297°
2026-05-03 22:26 37.61884 -122.38374 19 ft 3 kts 297°
2026-05-03 22:26 37.61875 -122.38352 19 ft 3 kts 297°
2026-05-03 22:27 37.61866 -122.38331 18 ft 3 kts 297°
2026-05-03 22:27 37.61858 -122.38310 22 ft 1 kts 297°
2026-05-03 22:27 37.61857 -122.38310 21 ft 0 kts 297°
2026-05-03 22:29 37.61858 -122.38312 22 ft 2 kts 298°
2026-05-03 22:29 37.61869 -122.38305 19 ft 3 kts 42°
2026-05-03 22:30 37.61905 -122.38267 21 ft 9 kts 38°
2026-05-03 22:30 37.61944 -122.38208 23 ft 10 kts 76°
2026-05-03 22:30 37.61924 -122.38108 21 ft 14 kts 112°
2026-05-03 22:30 37.61879 -122.37993 22 ft 16 kts 115°
2026-05-03 22:31 37.61827 -122.37850 18 ft 20 kts 114°
2026-05-03 22:31 37.61769 -122.37677 20 ft 22 kts 112°
2026-05-03 22:31 37.61708 -122.37490 19 ft 24 kts 114°
2026-05-03 22:31 37.61632 -122.37296 22 ft 25 kts 116°
2026-05-03 22:32 37.61546 -122.37093 21 ft 28 kts 117°
2026-05-03 22:32 37.61443 -122.36894 20 ft 22 kts 132°
2026-05-03 22:32 37.61346 -122.36732 18 ft 25 kts 119°
2026-05-03 22:32 37.61261 -122.36534 14 ft 25 kts 118°
2026-05-03 22:33 37.61180 -122.36337 17 ft 23 kts 118°
2026-05-03 22:33 37.61110 -122.36175 17 ft 21 kts 118°
2026-05-03 22:33 37.61063 -122.36060 19 ft 11 kts 117°
2026-05-03 22:33 37.61051 -122.35980 19 ft 0 kts 81°
2026-05-03 22:36 37.61052 -122.35971 19 ft 4 kts 81°
2026-05-03 22:36 37.61074 -122.35925 18 ft 9 kts 41°
2026-05-03 22:37 37.61096 -122.35907 19 ft 0 kts 30°
2026-05-03 22:40 37.61111 -122.35896 19 ft 6 kts 30°
2026-05-03 22:40 37.61158 -122.35867 20 ft 8 kts 11°
2026-05-03 22:40 37.61206 -122.35928 18 ft 22 kts 301°
2026-05-03 22:40 37.61379 -122.36338 14 ft 83 kts 298°
2026-05-03 22:41 37.61736 -122.37183 20 ft 135 kts 297°
2026-05-03 22:41 37.62250 -122.38405 98 ft 174 kts 297°
2026-05-03 22:41 37.62835 -122.39783 696 ft 179 kts 301°
2026-05-03 22:41 37.63734 -122.40838 1476 ft 185 kts 337°
2026-05-03 22:42 37.65043 -122.40788 1979 ft 204 kts 22°
2026-05-03 22:42 37.66137 -122.39487 2270 ft 235 kts 59°
2026-05-03 22:42 37.66873 -122.37540 2869 ft 257 kts 69°
2026-05-03 22:42 37.67501 -122.35367 3730 ft 267 kts 72°
2026-05-03 22:43 37.68123 -122.33130 4811 ft 271 kts 73°
2026-05-03 22:43 37.68768 -122.30894 5993 ft 271 kts 73°
2026-05-03 22:43 37.69442 -122.28672 7026 ft 272 kts 73°
2026-05-03 22:43 37.70142 -122.26442 7940 ft 276 kts 72°
2026-05-03 22:44 37.71050 -122.24275 8812 ft 287 kts 56°
2026-05-03 22:44 37.72559 -122.22562 9688 ft 298 kts 33°
2026-05-03 22:44 37.74522 -122.21640 10504 ft 307 kts 11°
2026-05-03 22:44 37.76703 -122.21546 11049 ft 325 kts
2026-05-03 22:45 37.78921 -122.21600 11452 ft 341 kts 359°
2026-05-03 22:45 37.81314 -122.21678 12164 ft 347 kts 359°
2026-05-03 22:45 37.83746 -122.21760 12932 ft 351 kts 359°
2026-05-03 22:45 37.86204 -122.21838 13700 ft 356 kts 360°
2026-05-03 22:46 37.88689 -122.21912 14406 ft 359 kts 360°
2026-05-03 22:46 37.91201 -122.21982 15067 ft 363 kts
2026-05-03 22:46 37.93738 -122.22049 15739 ft 366 kts
2026-05-03 22:46 37.96295 -122.22118 16398 ft 370 kts
2026-05-03 22:47 37.98878 -122.22187 17063 ft 373 kts
2026-05-03 22:47 38.01485 -122.22254 17732 ft 377 kts
2026-05-03 22:47 38.04117 -122.22316 18389 ft 380 kts
2026-05-03 22:47 38.06772 -122.22379 18976 ft 383 kts
2026-05-03 22:48 38.09449 -122.22447 19582 ft 386 kts
2026-05-03 22:48 38.12144 -122.22521 20181 ft 389 kts
2026-05-03 22:48 38.14859 -122.22596 20787 ft 392 kts
2026-05-03 22:48 38.17597 -122.22668 21376 ft 395 kts
2026-05-03 22:49 38.20353 -122.22740 21958 ft 398 kts
2026-05-03 22:49 38.23129 -122.22816 22525 ft 401 kts
2026-05-03 22:49 38.25925 -122.22893 23081 ft 404 kts
2026-05-03 22:49 38.28746 -122.22966 23639 ft 407 kts
2026-05-03 22:50 38.31583 -122.23041 24108 ft 409 kts
2026-05-03 22:50 38.34434 -122.23116 24586 ft 411 kts
2026-05-03 22:50 38.37300 -122.23246 25054 ft 414 kts
2026-05-03 22:50 38.40187 -122.23495 25533 ft 417 kts
2026-05-03 22:51 38.43087 -122.23821 25992 ft 420 kts 360°
2026-05-03 22:51 38.46004 -122.24180 26449 ft 422 kts
2026-05-03 22:51 38.48933 -122.24539 26891 ft 424 kts
2026-05-03 22:51 38.51879 -122.24882 27368 ft 426 kts
2026-05-03 22:52 38.54837 -122.25205 27828 ft 427 kts
2026-05-03 22:52 38.57767 -122.25511 28270 ft 430 kts
2026-05-03 22:52 38.60755 -122.25812 28724 ft 432 kts
2026-05-03 22:52 38.63757 -122.26113 29174 ft 434 kts
2026-05-03 22:53 38.66774 -122.26418 29605 ft 436 kts
2026-05-03 22:53 38.69805 -122.26729 29998 ft 439 kts
2026-05-03 22:53 38.72859 -122.27050 30351 ft 441 kts
2026-05-03 22:53 38.75924 -122.27375 30677 ft 444 kts
2026-05-03 22:54 38.79014 -122.27702 31010 ft 446 kts
2026-05-03 22:54 38.82118 -122.28029 31300 ft 449 kts
2026-05-03 22:54 38.85239 -122.28357 31580 ft 452 kts
2026-05-03 22:54 38.88382 -122.28688 31889 ft 454 kts
2026-05-03 22:55 38.91530 -122.29021 32260 ft 455 kts
2026-05-03 22:55 38.93619 -122.29241 32567 ft 454 kts
2026-05-03 22:55 38.96805 -122.29575 33014 ft 453 kts
2026-05-03 22:55 38.99950 -122.29905 33420 ft 453 kts
2026-05-03 22:56 39.03087 -122.30234 33841 ft 453 kts
2026-05-03 22:56 39.06228 -122.30565 34175 ft 453 kts
2026-05-03 22:56 39.09365 -122.30899 34564 ft 452 kts
2026-05-03 22:56 39.12460 -122.31227 34889 ft 452 kts 360°
2026-05-03 22:57 39.15599 -122.31559 35202 ft 453 kts 359°
2026-05-03 22:57 39.18742 -122.31891 35502 ft 454 kts 359°
2026-05-03 22:57 39.21931 -122.32230 35803 ft 454 kts 358°
2026-05-03 22:57 39.25083 -122.32563 36089 ft 455 kts 358°
2026-05-03 22:58 39.28232 -122.32893 36425 ft 454 kts 358°
2026-05-03 22:58 39.31383 -122.33223 36728 ft 454 kts 357°
2026-05-03 22:58 39.34533 -122.33558 37005 ft 455 kts 357°
2026-05-03 22:58 39.37690 -122.33897 37269 ft 455 kts 356°
2026-05-03 22:59 39.40845 -122.34239 37532 ft 456 kts 356°
2026-05-03 22:59 39.44007 -122.34582 37786 ft 456 kts 356°
2026-05-03 22:59 39.47173 -122.34925 37911 ft 456 kts 356°
2026-05-03 23:00 39.53486 -122.35600 37918 ft 455 kts 356°
2026-05-03 23:00 39.59750 -122.36268 37920 ft 455 kts 356°
2026-05-03 23:01 39.66090 -122.36944 37916 ft 453 kts 356°
2026-05-03 23:01 39.72371 -122.37624 37915 ft 453 kts 356°
2026-05-03 23:02 39.78650 -122.38305 37919 ft 453 kts 356°
2026-05-03 23:02 39.84931 -122.38985 37924 ft 452 kts 356°
2026-05-03 23:03 39.91200 -122.39657 37931 ft 452 kts 356°
2026-05-03 23:03 39.97456 -122.40332 37932 ft 451 kts 356°
2026-05-03 23:04 40.03707 -122.41009 37931 ft 451 kts 356°
2026-05-03 23:04 40.09956 -122.41700 37945 ft 450 kts 356°
2026-05-03 23:05 40.16201 -122.42375 37940 ft 450 kts 356°
2026-05-03 23:05 40.22440 -122.43046 37927 ft 450 kts 356°
2026-05-03 23:06 40.28673 -122.43727 37928 ft 449 kts 356°
2026-05-03 23:06 40.34858 -122.44409 37896 ft 449 kts 356°
2026-05-03 23:07 40.41079 -122.45096 37904 ft 448 kts 357°
2026-05-03 23:07 40.47274 -122.45775 37902 ft 446 kts 357°
2026-05-03 23:08 40.53449 -122.46446 37897 ft 445 kts 357°
2026-05-03 23:08 40.59613 -122.47121 37898 ft 444 kts 357°
2026-05-03 23:09 40.65765 -122.47805 37904 ft 443 kts 357°
2026-05-03 23:09 40.71910 -122.48489 37912 ft 443 kts 357°
2026-05-03 23:10 40.78043 -122.49171 37910 ft 442 kts 357°
2026-05-03 23:10 40.84175 -122.49852 37918 ft 442 kts 357°
2026-05-03 23:11 40.90295 -122.50539 37923 ft 441 kts 357°
2026-05-03 23:11 40.96410 -122.51226 37917 ft 441 kts 358°
2026-05-03 23:12 41.02518 -122.51905 37925 ft 440 kts 358°
2026-05-03 23:12 41.08616 -122.52578 37922 ft 440 kts 358°
2026-05-03 23:13 41.14716 -122.53261 37922 ft 440 kts 358°
2026-05-03 23:13 41.20812 -122.53948 37920 ft 440 kts 358°
2026-05-03 23:14 41.26911 -122.54639 37913 ft 440 kts 358°
2026-05-03 23:14 41.33007 -122.55338 37905 ft 440 kts 357°
2026-05-03 23:15 41.39109 -122.56025 37908 ft 440 kts 357°
2026-05-03 23:15 41.45212 -122.56709 37907 ft 440 kts 358°
2026-05-03 23:16 41.51309 -122.57400 37907 ft 440 kts 357°
2026-05-03 23:16 41.57408 -122.57971 37911 ft 439 kts 359°
2026-05-03 23:17 41.63517 -122.58310 37909 ft 439 kts 360°
2026-05-03 23:17 41.69626 -122.58637 37909 ft 439 kts 359°
2026-05-03 23:18 41.75736 -122.59023 37921 ft 439 kts 359°
2026-05-03 23:18 41.81842 -122.59434 37924 ft 439 kts 359°
2026-05-03 23:19 41.87910 -122.59842 37926 ft 439 kts 359°
2026-05-03 23:19 41.94017 -122.60239 37914 ft 440 kts 359°
2026-05-03 23:20 42.00126 -122.60639 37909 ft 440 kts 359°
2026-05-03 23:20 42.06238 -122.61048 37897 ft 440 kts 359°
2026-05-03 23:21 42.12349 -122.61455 37893 ft 439 kts 359°
2026-05-03 23:21 42.18449 -122.61855 37897 ft 439 kts 359°
2026-05-03 23:22 42.27593 -122.62462 37895 ft 439 kts 359°
2026-05-03 23:22 42.33688 -122.62866 37896 ft 438 kts 359°
2026-05-03 23:23 42.39774 -122.63269 37889 ft 438 kts 359°
2026-05-03 23:23 42.45855 -122.63675 37889 ft 437 kts 359°
2026-05-03 23:24 42.51928 -122.64090 37881 ft 436 kts 359°
2026-05-03 23:24 42.57983 -122.64501 37878 ft 436 kts 358°
2026-05-03 23:25 42.64029 -122.64907 37882 ft 434 kts 358°
2026-05-03 23:25 42.70056 -122.65313 37889 ft 433 kts 359°
2026-05-03 23:26 42.76062 -122.65722 37892 ft 431 kts 359°
2026-05-03 23:26 42.82050 -122.66134 37894 ft 430 kts 359°
2026-05-03 23:27 42.88033 -122.66540 37894 ft 430 kts 359°
2026-05-03 23:27 42.94008 -122.66945 37894 ft 430 kts 359°
2026-05-03 23:28 42.99968 -122.67350 37899 ft 428 kts 359°
2026-05-03 23:28 43.05910 -122.67756 37898 ft 427 kts 359°
2026-05-03 23:29 43.11838 -122.68162 37893 ft 427 kts 359°
2026-05-03 23:29 43.17768 -122.68563 37890 ft 427 kts 359°
2026-05-03 23:30 43.23699 -122.68959 37886 ft 427 kts 359°
2026-05-03 23:30 43.29590 -122.69363 37880 ft 427 kts 359°
2026-05-03 23:31 43.35564 -122.69788 37876 ft 427 kts 359°
2026-05-03 23:31 43.41498 -122.70196 37875 ft 428 kts 359°
2026-05-03 23:32 43.44501 -122.70399 37640 ft 436 kts 359°
2026-05-03 23:32 43.47536 -122.70607 37376 ft 436 kts 359°
2026-05-03 23:32 43.50552 -122.70819 37016 ft 432 kts 359°
2026-05-03 23:32 43.53545 -122.71030 36603 ft 429 kts 359°
2026-05-03 23:33 43.56481 -122.71236 36185 ft 426 kts 359°
2026-05-03 23:33 43.59468 -122.71444 35774 ft 423 kts 359°
2026-05-03 23:33 43.62400 -122.71644 35343 ft 421 kts 359°
2026-05-03 23:33 43.65314 -122.71842 34915 ft 418 kts 359°
2026-05-03 23:34 43.68213 -122.72039 34476 ft 416 kts 359°
2026-05-03 23:34 43.71092 -122.72236 34035 ft 414 kts 358°
2026-05-03 23:34 43.73961 -122.72433 33560 ft 411 kts 359°
2026-05-03 23:34 43.76770 -122.72628 33119 ft 408 kts 359°
2026-05-03 23:35 43.79628 -122.72829 32660 ft 404 kts 359°
2026-05-03 23:35 43.82427 -122.73029 32240 ft 401 kts 359°
2026-05-03 23:35 43.85200 -122.73224 31808 ft 398 kts 359°
2026-05-03 23:35 43.87915 -122.73414 31403 ft 395 kts 359°
2026-05-03 23:36 43.90649 -122.73606 30990 ft 392 kts 359°
2026-05-03 23:36 43.93364 -122.73799 30587 ft 389 kts 358°
2026-05-03 23:36 43.96059 -122.73989 30190 ft 387 kts 359°
2026-05-03 23:36 43.98742 -122.74176 29767 ft 385 kts 359°
2026-05-03 23:37 44.01403 -122.74361 29387 ft 381 kts 359°
2026-05-03 23:37 44.04036 -122.74544 29010 ft 377 kts 359°
2026-05-03 23:37 44.06643 -122.74725 28644 ft 374 kts 359°
2026-05-03 23:37 44.09231 -122.74907 28293 ft 370 kts 359°
2026-05-03 23:38 44.11792 -122.75089 27942 ft 367 kts 359°
2026-05-03 23:38 44.14330 -122.75265 27569 ft 363 kts
2026-05-03 23:38 44.16835 -122.75138 27215 ft 358 kts
2026-05-03 23:38 44.18511 -122.74974 26967 ft 356 kts
2026-05-03 23:39 44.21766 -122.74653 26487 ft 352 kts
2026-05-03 23:39 44.23378 -122.74493 26234 ft 350 kts
2026-05-03 23:39 44.25826 -122.74249 25868 ft 347 kts
2026-05-03 23:39 44.28191 -122.74015 25503 ft 344 kts
2026-05-03 23:40 44.30575 -122.73778 25114 ft 342 kts
2026-05-03 23:40 44.32944 -122.73540 24726 ft 341 kts
2026-05-03 23:40 44.35305 -122.73307 24331 ft 340 kts
2026-05-03 23:40 44.37658 -122.73076 23939 ft 339 kts
2026-05-03 23:41 44.40006 -122.72845 23553 ft 338 kts
2026-05-03 23:41 44.42350 -122.72614 23120 ft 337 kts
2026-05-03 23:41 44.44675 -122.72388 22726 ft 334 kts
2026-05-03 23:41 44.46985 -122.72165 22338 ft 331 kts
2026-05-03 23:42 44.49277 -122.71940 21952 ft 329 kts
2026-05-03 23:42 44.51551 -122.71712 21560 ft 327 kts
2026-05-03 23:42 44.53812 -122.71483 21185 ft 325 kts
2026-05-03 23:42 44.56059 -122.71259 20809 ft 323 kts
2026-05-03 23:43 44.58295 -122.71036 20419 ft 321 kts
2026-05-03 23:43 44.60522 -122.70812 20032 ft 320 kts
2026-05-03 23:43 44.62733 -122.70588 19662 ft 318 kts
2026-05-03 23:43 44.64940 -122.70366 19285 ft 317 kts
2026-05-03 23:44 44.67135 -122.70144 18921 ft 316 kts
2026-05-03 23:44 44.69327 -122.69923 18534 ft 315 kts
2026-05-03 23:44 44.71512 -122.69704 18155 ft 315 kts
2026-05-03 23:44 44.73693 -122.69490 17763 ft 313 kts
2026-05-03 23:45 44.75842 -122.69278 17483 ft 307 kts
2026-05-03 23:45 44.77967 -122.69064 17134 ft 305 kts
2026-05-03 23:45 44.80079 -122.68848 16764 ft 303 kts
2026-05-03 23:45 44.82178 -122.68632 16406 ft 302 kts
2026-05-03 23:46 44.84269 -122.68420 16046 ft 301 kts
2026-05-03 23:46 44.86351 -122.68210 15695 ft 299 kts
2026-05-03 23:46 44.88424 -122.68002 15333 ft 298 kts
2026-05-03 23:46 44.90492 -122.67792 14985 ft 298 kts
2026-05-03 23:47 44.92554 -122.67579 14637 ft 297 kts
2026-05-03 23:47 44.94583 -122.67371 14293 ft 296 kts
2026-05-03 23:47 44.96664 -122.67161 13939 ft 296 kts
2026-05-03 23:47 44.98718 -122.66955 13567 ft 296 kts
2026-05-03 23:48 45.00767 -122.66755 13186 ft 295 kts
2026-05-03 23:48 45.02807 -122.66554 12838 ft 293 kts
2026-05-03 23:48 45.04835 -122.66349 12486 ft 292 kts
2026-05-03 23:48 45.06852 -122.66144 12136 ft 290 kts
2026-05-03 23:49 45.08863 -122.65937 11793 ft 289 kts
2026-05-03 23:49 45.10864 -122.65729 11431 ft 288 kts
2026-05-03 23:49 45.12863 -122.65527 11096 ft 288 kts
2026-05-03 23:49 45.14858 -122.65330 10747 ft 287 kts
2026-05-03 23:50 45.16851 -122.65132 10396 ft 287 kts
2026-05-03 23:50 45.18837 -122.64928 10052 ft 286 kts
2026-05-03 23:50 45.20798 -122.64724 9908 ft 278 kts
2026-05-03 23:50 45.22670 -122.64533 9782 ft 267 kts
2026-05-03 23:51 45.24464 -122.64155 9449 ft 257 kts 18°
2026-05-03 23:51 45.26120 -122.63216 9011 ft 250 kts 31°
2026-05-03 23:51 45.27565 -122.61934 8575 ft 248 kts 34°
2026-05-03 23:51 45.29013 -122.60620 8127 ft 246 kts 34°
2026-05-03 23:52 45.30455 -122.59320 7670 ft 245 kts 33°
2026-05-03 23:52 45.31904 -122.58022 7206 ft 248 kts 33°
2026-05-03 23:52 45.33340 -122.56735 7057 ft 238 kts 33°
2026-05-03 23:52 45.34542 -122.55656 6942 ft 230 kts 33°
2026-05-03 23:53 45.35883 -122.54449 6756 ft 222 kts 33°
2026-05-03 23:53 45.37161 -122.53301 6474 ft 219 kts 33°
2026-05-03 23:53 45.38442 -122.52149 6142 ft 218 kts 33°
2026-05-03 23:53 45.39712 -122.51006 5971 ft 215 kts 32°
2026-05-03 23:54 45.40978 -122.49864 5812 ft 215 kts 33°
2026-05-03 23:54 45.42233 -122.48721 5662 ft 214 kts 35°
2026-05-03 23:54 45.43222 -122.47162 5514 ft 211 kts 62°
2026-05-03 23:54 45.43600 -122.45205 5395 ft 203 kts 86°
2026-05-03 23:55 45.43359 -122.43265 5232 ft 199 kts 110°
2026-05-03 23:55 45.42729 -122.41521 4951 ft 196 kts 108°
2026-05-03 23:55 45.42716 -122.39664 4632 ft 189 kts 71°
2026-05-03 23:55 45.43406 -122.38108 4271 ft 187 kts 43°
2026-05-03 23:56 45.44510 -122.37185 3975 ft 185 kts 17°
2026-05-03 23:56 45.45783 -122.37103 3655 ft 186 kts 349°
2026-05-03 23:56 45.47006 -122.37712 3316 ft 186 kts 341°
2026-05-03 23:56 45.48220 -122.38352 2998 ft 186 kts 341°
2026-05-03 23:57 45.49428 -122.38983 2865 ft 185 kts 342°
2026-05-03 23:57 45.50566 -122.39851 2793 ft 187 kts 322°
2026-05-03 23:57 45.51353 -122.41271 2611 ft 179 kts 301°
2026-05-03 23:57 45.51944 -122.42786 2409 ft 171 kts 302°
2026-05-03 23:58 45.52507 -122.44219 2189 ft 160 kts 303°
2026-05-03 23:58 45.53030 -122.45556 2010 ft 150 kts 304°
2026-05-03 23:58 45.53534 -122.46842 1820 ft 146 kts 304°
2026-05-03 23:58 45.54026 -122.48095 1640 ft 143 kts 304°
2026-05-03 23:59 45.54507 -122.49322 1450 ft 141 kts 302°
2026-05-03 23:59 45.54984 -122.50542 1294 ft 140 kts 302°
2026-05-03 23:59 45.55457 -122.51749 1105 ft 139 kts 299°
2026-05-03 23:59 45.55927 -122.52952 933 ft 139 kts 300°
2026-05-04 00:00 45.56392 -122.54142 725 ft 136 kts 299°
2026-05-04 00:00 45.56851 -122.55317 560 ft 134 kts 298°
2026-05-04 00:00 45.57302 -122.56469 379 ft 132 kts 298°
2026-05-04 00:00 45.57756 -122.57618 194 ft 133 kts 299°
2026-05-04 00:01 45.58201 -122.58769 42 ft 130 kts 299°
2026-05-04 00:01 45.58583 -122.59749 31 ft 82 kts 299°
2026-05-04 00:01 45.58762 -122.60133 29 ft 30 kts 320°
2026-05-04 00:01 45.58909 -122.60231 28 ft 16 kts
2026-05-04 00:02 45.59020 -122.60156 28 ft 19 kts 29°
2026-05-04 00:02 45.59129 -122.60046 28 ft 18 kts 57°
2026-05-04 00:02 45.59126 -122.59900 29 ft 15 kts 115°
2026-05-04 00:02 45.59081 -122.59806 29 ft 8 kts 164°
2026-05-04 00:03 45.59032 -122.59833 29 ft 3 kts 210°
2026-05-04 00:03 45.59029 -122.59836 29 ft 0 kts 211°